Tracking 25734 objects as of 27-May-2022
HD Live streaming from Space Station
objects crossing your sky now

COSMOS 1823 DEB

Track COSMOS 1823 DEB now!
10-day predictions


NORAD ID: 39833
Int'l Code: 1987-020FH
Perigee: 1,419.7 km
Apogee: 1,458.6 km
Inclination: 73.8 °
Period: 114.5 minutes
Semi major axis: 7810 km
RCS: 0.0132 m2 (small)
Launch date: February 20, 1987
Source: Commonwealth of Independent States (former USSR) (CIS)
Launch site: PLESETSK MISSILE AND SPACE COMPLEX (PKMTR)

Note: This is SATELLITE DEBRIS
aabbcc
Your satellite tracking list
Your tracking list is empty




NASA's NSSDC Master Catalog

Two Line Element Set (TLE):
1 39833U 87020FH  22147.20884559  .00000273  00000-0  17227-2 0  9993
2 39833  73.7796 331.4815 0024882  26.5261 333.7061 12.57810024366286
Source of the keplerian elements: AFSPC